When you browse on this site, cookies collect data to enhance your experience and personalize the content and advertising you see.
Visit our Privacy Policy to learn more. By continuing to use the site, you agree to this use of cookies and data.
  • In United Kingdom
  • List of Countries
  • For 7 days
  • Water Temperature
  • Weather Map
  • Weather Widgets
  • user-avatar
    Login

    Hourly Weather Piraeus

    Today, 19 January, Sunday

    Time Temperature Precipitation Wind Pressure Humidity
    00:00 +7°C° 0 mm 4 mps 764 mmHg 78%
    01:00 +6°C° 0 mm 4 mps 763 mmHg 80%
    02:00 +6°C° 0 mm 4 mps 763 mmHg 82%
    03:00 +6°C° 0 mm 4 mps 763 mmHg 81%
    04:00 +6°C° 0 mm 4 mps 763 mmHg 81%
    05:00 +6°C° 0 mm 4 mps 763 mmHg 81%
    06:00 +6°C° 0 mm 4 mps 763 mmHg 80%
    07:00 +6°C° 0 mm 4 mps 763 mmHg 79%
    08:00 +6°C° 0 mm 4 mps 763 mmHg 79%
    09:00 +7°C° 0 mm 4 mps 764 mmHg 75%
    10:00 +7°C° 0 mm 5 mps 764 mmHg 72%
    11:00 +8°C° 0 mm 5 mps 764 mmHg 68%
    12:00 +8°C° 0 mm 5 mps 764 mmHg 68%
    13:00 +8°C° 0 mm 5 mps 764 mmHg 67%
    14:00 +8°C° 0 mm 5 mps 764 mmHg 67%
    15:00 +8°C° 0 mm 5 mps 764 mmHg 68%
    16:00 +8°C° 0 mm 5 mps 764 mmHg 69%
    17:00 +8°C° 0 mm 5 mps 765 mmHg 71%
    18:00 +7°C° 0 mm 5 mps 765 mmHg 73%
    19:00 +7°C° 0 mm 4 mps 766 mmHg 76%
    20:00 +6°C° 0 mm 4 mps 766 mmHg 78%
    21:00 +6°C° 0 mm 4 mps 767 mmHg 79%
    22:00 +6°C° 0 mm 4 mps 768 mmHg 79%
    23:00 +6°C° 0 mm 4 mps 768 mmHg 79%

    Tomorrow, 20 January, Monday

    Time Temperature Precipitation Wind Pressure Humidity
    00:00 +6°C° 0 mm 4 mps 769 mmHg 79%
    01:00 +5°C° 0 mm 5 mps 769 mmHg 80%
    02:00 +5°C° 0 mm 5 mps 769 mmHg 80%
    03:00 +5°C° 0 mm 5 mps 769 mmHg 81%
    04:00 +5°C° 0 mm 5 mps 770 mmHg 81%
    05:00 +5°C° 0 mm 5 mps 770 mmHg 81%
    06:00 +5°C° 0 mm 5 mps 770 mmHg 81%
    07:00 +5°C° 0 mm 5 mps 771 mmHg 80%
    08:00 +5°C° 0 mm 5 mps 771 mmHg 80%
    09:00 +5°C° 0 mm 6 mps 772 mmHg 75%
    10:00 +7°C° 0 mm 6 mps 772 mmHg 70%
    11:00 +8°C° 0 mm 6 mps 773 mmHg 65%
    12:00 +8°C° 0 mm 7 mps 773 mmHg 64%
    13:00 +8°C° 0 mm 7 mps 773 mmHg 63%
    14:00 +8°C° 0 mm 7 mps 774 mmHg 62%
    15:00 +8°C° 0 mm 7 mps 774 mmHg 64%
    16:00 +6°C° 0 mm 7 mps 774 mmHg 67%
    17:00 +6°C° 0 mm 7 mps 774 mmHg 69%
    18:00 +6°C° 0 mm 7 mps 775 mmHg 72%
    19:00 +5°C° 0 mm 6 mps 775 mmHg 74%
    20:00 +5°C° 0 mm 6 mps 775 mmHg 77%
    21:00 +4°C° 0 mm 6 mps 776 mmHg 76%
    22:00 +4°C° 0 mm 6 mps 776 mmHg 75%
    23:00 +4°C° 0 mm 6 mps 776 mmHg 73%

    Day after tomorrow, 21 January, Tuesday

    Time Temperature Precipitation Wind Pressure Humidity
    00:00 +4°C° 0 mm 6 mps 776 mmHg 73%
    01:00 +4°C° 0 mm 6 mps 776 mmHg 72%
    02:00 +4°C° 0 mm 7 mps 776 mmHg 72%
    03:00 +4°C° 0 mm 7 mps 776 mmHg 73%
    04:00 +3°C° 0 mm 6 mps 776 mmHg 74%
    05:00 +3°C° 0 mm 6 mps 777 mmHg 75%
    06:00 +3°C° 0 mm 6 mps 777 mmHg 75%
    07:00 +3°C° 0 mm 6 mps 777 mmHg 76%
    08:00 +3°C° 0 mm 5 mps 777 mmHg 77%
    09:00 +4°C° 0 mm 6 mps 777 mmHg 72%
    10:00 +7°C° 0 mm 6 mps 777 mmHg 67%
    11:00 +8°C° 0 mm 7 mps 777 mmHg 62%
    12:00 +8°C° 0 mm 7 mps 776 mmHg 61%
    13:00 +9°C° 0 mm 7 mps 776 mmHg 59%
    14:00 +9°C° 0 mm 7 mps 775 mmHg 58%
    15:00 +9°C° 0 mm 6 mps 775 mmHg 60%
    16:00 +8°C° 0 mm 6 mps 774 mmHg 61%
    17:00 +8°C° 0 mm 5 mps 774 mmHg 63%
    18:00 +7°C° 0 mm 5 mps 774 mmHg 65%
    19:00 +6°C° 0 mm 4 mps 774 mmHg 68%
    20:00 +5°C° 0 mm 4 mps 774 mmHg 70%
    21:00 +5°C° 0 mm 4 mps 774 mmHg 70%
    22:00 +5°C° 0 mm 4 mps 773 mmHg 70%
    23:00 +5°C° 0 mm 4 mps 773 mmHg 70%

    22 January, Wednesday

    Time Temperature Precipitation Wind Pressure Humidity
    00:00 +4°C° 0 mm 4 mps 773 mmHg 71%
    01:00 +4°C° 0 mm 4 mps 773 mmHg 71%
    02:00 +4°C° 0 mm 4 mps 772 mmHg 71%
    03:00 +4°C° 0 mm 4 mps 772 mmHg 71%
    04:00 +4°C° 0 mm 4 mps 772 mmHg 71%
    05:00 +4°C° 0 mm 3 mps 771 mmHg 71%
    06:00 +4°C° 0 mm 3 mps 771 mmHg 70%
    07:00 +4°C° 0 mm 3 mps 771 mmHg 70%
    08:00 +4°C° 0 mm 3 mps 771 mmHg 69%
    09:00 +7°C° 0 mm 3 mps 771 mmHg 63%
    10:00 +8°C° 0 mm 3 mps 771 mmHg 56%
    11:00 +10°C° 0 mm 3 mps 771 mmHg 50%
    12:00 +11°C° 0 mm 3 mps 770 mmHg 47%
    13:00 +13°C° 0 mm 2 mps 770 mmHg 45%
    14:00 +13°C° 0 mm 2 mps 769 mmHg 42%
    15:00 +13°C° 0 mm 2 mps 769 mmHg 45%
    16:00 +13°C° 0 mm 2 mps 768 mmHg 49%
    17:00 +12°C° 0 mm 2 mps 768 mmHg 52%
    18:00 +10°C° 0 mm 2 mps 768 mmHg 53%
    19:00 +9°C° 0 mm 2 mps 768 mmHg 55%
    20:00 +8°C° 0 mm 2 mps 768 mmHg 56%
    21:00 +8°C° 0 mm 2 mps 767 mmHg 54%
    22:00 +8°C° 0 mm 2 mps 767 mmHg 52%
    23:00 +9°C° 0 mm 1 mps 767 mmHg 50%

    23 January, Thursday

    Time Temperature Precipitation Wind Pressure Humidity
    00:00 +7°C° 0 mm 2 mps 766 mmHg 51%
    01:00 +7°C° 0 mm 2 mps 766 mmHg 52%
    02:00 +7°C° 0 mm 2 mps 765 mmHg 52%
    03:00 +7°C° 0 mm 2 mps 765 mmHg 53%
    04:00 +7°C° 0 mm 2 mps 765 mmHg 54%
    05:00 +7°C° 0 mm 2 mps 764 mmHg 55%
    06:00 +7°C° 0 mm 2 mps 764 mmHg 54%
    07:00 +7°C° 0 mm 2 mps 764 mmHg 53%
    08:00 +7°C° 0 mm 2 mps 764 mmHg 53%
    09:00 +9°C° 0 mm 2 mps 764 mmHg 49%
    10:00 +12°C° 0 mm 2 mps 764 mmHg 45%
    11:00 +14°C° 0 mm 2 mps 764 mmHg 41%
    12:00 +15°C° 0 mm 2 mps 764 mmHg 39%
    13:00 +15°C° 0 mm 2 mps 764 mmHg 38%
    14:00 +16°C° 0 mm 2 mps 764 mmHg 37%
    15:00 +15°C° 0 mm 2 mps 764 mmHg 41%
    16:00 +15°C° 0 mm 2 mps 764 mmHg 44%
    17:00 +13°C° 0 mm 3 mps 765 mmHg 48%
    18:00 +12°C° 0 mm 4 mps 765 mmHg 54%
    19:00 +10°C° 0 mm 5 mps 766 mmHg 60%
    20:00 +9°C° 0 mm 6 mps 767 mmHg 66%
    21:00 +8°C° 0 mm 6 mps 768 mmHg 69%
    22:00 +8°C° 0 mm 7 mps 769 mmHg 71%
    23:00 +6°C° 0 mm 7 mps 770 mmHg 74%

    24 January, Friday

    Time Temperature Precipitation Wind Pressure Humidity
    00:00 +6°C° 0 mm 7 mps 770 mmHg 73%
    01:00 +6°C° 0 mm 7 mps 770 mmHg 72%
    02:00 +6°C° 0 mm 7 mps 771 mmHg 71%
    03:00 +6°C° 0 mm 7 mps 771 mmHg 70%
    04:00 +5°C° 0 mm 6 mps 771 mmHg 69%
    05:00 +5°C° 0 mm 6 mps 772 mmHg 68%
    06:00 +5°C° 0 mm 6 mps 772 mmHg 68%
    07:00 +5°C° 0 mm 5 mps 772 mmHg 67%
    08:00 +5°C° 0 mm 5 mps 773 mmHg 67%
    09:00 +6°C° 0 mm 5 mps 773 mmHg 63%
    10:00 +7°C° 0 mm 5 mps 773 mmHg 58%
    11:00 +8°C° 0 mm 5 mps 773 mmHg 54%
    12:00 +8°C° 0 mm 5 mps 773 mmHg 53%
    13:00 +10°C° 0 mm 4 mps 773 mmHg 52%
    14:00 +10°C° 0 mm 4 mps 772 mmHg 51%
    15:00 +10°C° 0 mm 4 mps 772 mmHg 53%
    16:00 +9°C° 0 mm 3 mps 772 mmHg 55%
    17:00 +9°C° 0 mm 3 mps 772 mmHg 58%
    18:00 +8°C° 0 mm 3 mps 772 mmHg 61%
    19:00 +8°C° 0 mm 3 mps 772 mmHg 64%
    20:00 +7°C° 0 mm 3 mps 771 mmHg 68%
    21:00 +5°C° 0 mm 3 mps 771 mmHg 69%
    22:00 +6°C° 0 mm 2 mps 771 mmHg 70%
    23:00 +6°C° 0 mm 2 mps 771 mmHg 71%
    Show more